Station GTLM4 - Grand Traverse Light, MI Image indicating link to RSS feed of recent meteorological observations for station GTLM4


Conditions at GTLM4 as of
(2:40 am EDT)
0640 GMT on 06/14/2024:
     

Click on the graph icon in the table below to see a time series plot of the last five days of that observation.

5-day plot - Wind Direction Wind Direction (WDIR):WSW ( 250 deg true )
5-day plot - Wind Speed Wind Speed (WSPD): 4.1 kts
5-day plot - Wind Gust Wind Gust (GST): 6.0 kts
5-day plot - Atmospheric Pressure Atmospheric Pressure (PRES):29.92 in
5-day plot - Air Temperature Air Temperature (ATMP): 55.6 °F
5-day plot - Wind Speed at 10 Meters Wind Speed at 10 meters (WSPD10M): 3.9 kts
5-day plot - Wind Speed at 20 Meters Wind Speed at 20 meters (WSPD20M): 5.8 kts
5-day plot -  Wind Speed, Wind Gust and Atmospheric Pressure Combined plot of Wind Speed, Gust, and Air Pressure
Previous observations
TIME
(EDT)
5-day plot - Wind Direction
WDIR
 
5-day plot - Wind Speed
WSPD
kts
5-day plot - Wind Gust
GST
kts
5-day plot - Wave Height
WVHT
ft
5-day plot - Dominant Wave Period
DPD
sec
5-day plot - Average Wave Period
APD
sec
5-day plot - Mean Wave Direction
MWD
 
5-day plot - Atmospheric Pressure
PRES
in
5-day plot - Pressure Tendency
PTDY
in
5-day plot - Air Temperature
ATMP
°F
5-day plot - Water Temperature
WTMP
°F
5-day plot - Dew Point
DEWP
°F
5-day plot - Salinity
SAL
psu
5-day plot - Visibility
VIS
nmi
5-day plot - Tide (above MLLW)
TIDE
ft
2024-06-14 02:30 am W 5.1 6.0----29.92- 55.6-----
2024-06-14 02:20 am W 5.1 6.0----29.96- 56.3-----
2024-06-14 02:10 am NW 4.1 5.1----29.91- 56.5-----
2024-06-14 02:00 am W 2.9 4.1----29.91+0.03 56.7-----
2024-06-14 01:50 am W 1.9 5.1----29.91- 57.4-----
2024-06-14 01:40 am NW 4.1 5.1----29.90- 56.7-----
2024-06-14 01:30 amWSW 2.9 2.9----29.90- 56.7-----
2024-06-14 01:20 amWSW 1.9 1.9----29.89- 57.2-----
2024-06-14 01:10 am W 1.9 2.9----29.90- 57.9-----
2024-06-14 01:00 amSSW 1.9 4.1----29.90+0.05 58.5-----
2024-06-14 12:50 amWSW 2.9 4.1----29.91- 59.2-----
2024-06-14 12:40 amWSW 2.9 4.1----29.91- 59.2-----
2024-06-14 12:35 amWSW 2.9 4.1----29.91- 59.4-----
2024-06-14 12:30 amWSW 2.9 2.9----29.91- 59.4-----
2024-06-14 12:20 amWSW 1.9 2.9----29.91- 59.2-----
2024-06-14 12:10 amWSW 2.9 2.9----29.91- 59.2-----
2024-06-14 12:00 am W 1.9 4.1----29.90+0.07 59.0-----
2024-06-13 11:50 pm NW 1.0 4.1----29.89- 59.0-----
2024-06-13 11:40 pm N 2.9 4.1----29.90- 59.0-----
2024-06-13 11:35 pmNNW 1.9 6.0----29.90- 59.2-----
2024-06-13 11:30 pm N 1.9 4.1----29.86- 59.9-----
2024-06-13 11:20 pmNNE 2.9 6.0----29.93- 59.9-----
2024-06-13 11:10 pmNNE 1.9 4.1----29.89- 57.9-----
2024-06-13 11:00 pmNNE 1.0 1.9----29.88+0.08 57.4-----
2024-06-13 10:50 pm- 0.0 1.0----29.88- 57.7-----
2024-06-13 10:40 pm- 0.0 1.9----29.87- 57.9-----
2024-06-13 10:34 pm- 0.0 5.1----29.87- 58.1-----
2024-06-13 10:30 pm- 0.0 1.9----29.87- 58.1-----
2024-06-13 10:20 pm- 0.0 1.0----29.86- 58.5-----
2024-06-13 10:10 pm- 0.0 1.9----29.85- 59.0-----
2024-06-13 10:00 pm N 1.0 2.9----29.85+0.08 59.9-----
2024-06-13 09:50 pm N 2.9 5.1----29.80- 61.0-----
2024-06-13 09:40 pm N 5.1 6.0----29.85- 61.3-----
2024-06-13 09:34 pm N 5.1 8.0----29.84- 62.1-----
2024-06-13 09:30 pm N 6.0 8.0----29.82- 62.1-----
2024-06-13 09:20 pm N 4.1 6.0----29.83- 62.4-----
2024-06-13 09:10 pmWNW 2.9 4.1----29.84- 63.5-----
2024-06-13 09:00 pm N 2.9 5.1----29.83+0.06 64.0-----
2024-06-13 08:50 pmNNW 4.1 5.1----29.83- 64.4-----
2024-06-13 08:40 pm NW 4.1 6.0----29.84- 64.0-----
2024-06-13 08:34 pmWSW 4.1 5.1----29.80- 64.6-----
2024-06-13 08:30 pm SW 1.9 5.1----29.82- 64.6-----
2024-06-13 08:20 pmWSW 2.9 4.1----29.81- 65.3-----
2024-06-13 08:10 pm SW 1.9 4.1----29.77- 65.3-----
2024-06-13 08:00 pmWSW 4.1 5.1----29.80+0.02 65.7-----
2024-06-13 07:50 pm W 4.1 5.1----29.80- 65.5-----
2024-06-13 07:40 pm SW 1.9 4.1----29.79- 65.7-----
2024-06-13 07:33 pmWSW 1.9 7.0----29.78- 67.1-----
2024-06-13 07:30 pm W 1.0 2.9----29.78- 67.1-----
2024-06-13 07:20 pmWNW 2.9 4.1----29.78- 66.6-----
2024-06-13 07:10 pm- 0.0 2.9----29.77- 68.4-----
2024-06-13 07:00 pm NW 2.9 6.0----29.77+0.05 71.1-----
2024-06-13 06:50 pm NW 5.1 7.0----29.74- 69.6-----
2024-06-13 06:40 pmWNW 4.1 8.0----29.79- 66.4-----
2024-06-13 06:33 pmWSW 7.0 11.1----29.74- 64.9-----
2024-06-13 06:30 pmWSW 7.0 9.9----29.74- 64.9-----
2024-06-13 06:20 pm SW 8.0 11.1----29.77- 64.2-----
2024-06-13 06:10 pm SW 8.9 11.1----29.73- 65.7-----
2024-06-13 06:00 pmWSW 7.0 8.9----29.77+0.04 65.7-----
2024-06-13 05:50 pm W 7.0 8.0----29.77- 67.8-----
2024-06-13 05:40 pm W 8.0 9.9----29.77- 69.1-----
2024-06-13 05:32 pmWNW 8.9-----29.78- 71.1-----
2024-06-13 05:30 pmWNW 9.9 12.0----29.78- 71.1-----
2024-06-13 05:20 pmWNW 12.0 15.9----29.75- 70.2-----
2024-06-13 05:10 pmWNW 17.1 19.0----29.78- 67.1-----
2024-06-13 05:00 pmWNW 13.0 17.1----29.78+0.08 65.3-----
2024-06-13 04:50 pmWNW 15.0 33.0----29.78- 65.5-----
2024-06-13 04:45 pmWNW 24.1 25.1----29.78- 68.7-----
2024-06-13 04:40 pmWSW 22.9 28.9----29.74- 69.4-----
2024-06-13 04:32 pmWSW 24.1-----29.74- 70.0-----
2024-06-13 04:30 pmWSW 22.9 28.0----29.74- 70.0-----
2024-06-13 04:20 pmWSW 26.0 29.9----29.73- 70.0-----
2024-06-13 04:10 pmWSW 28.9 33.0----29.72- 70.3-----
2024-06-13 04:00 pmWSW 28.0 33.0----29.72+0.01 70.9-----
2024-06-13 03:50 pmWSW 27.0 33.0----29.71- 72.0-----
2024-06-13 03:42 pmWSW 27.0-----29.71- 71.8-----
2024-06-13 03:40 pmWSW 27.0 32.1----29.71- 71.8-----
2024-06-13 03:31 pmWSW 26.0-----29.65- 72.3-----
2024-06-13 03:30 pmWSW 26.0 35.0----29.71- 72.3-----
2024-06-13 03:20 pmWSW 28.9 35.9----29.66- 72.5-----
2024-06-13 03:10 pmWSW 28.0 35.0----29.70- 73.0-----
2024-06-13 03:00 pmWSW 28.9 36.9----29.73+0.00 72.7-----
2024-06-13 02:50 pmWSW 28.0 35.0----29.70- 72.1-----
2024-06-13 02:41 pmWSW 28.9 35.0----29.70- 71.1-----
2024-06-13 02:40 pmWSW 28.9 35.0----29.70- 71.1-----
2024-06-13 02:30 pmWSW 28.0 33.0----29.70- 70.3-----
2024-06-13 02:20 pmWSW 25.1 28.0----29.69- 68.9-----
2024-06-13 02:10 pmWSW 22.9 26.0----29.70- 68.7-----
2024-06-13 02:04 pmWSW 22.9 25.1----29.70- 69.3-----
2024-06-13 02:00 pmWSW 22.0 28.9----29.70-0.03 69.3-----
2024-06-13 01:50 pmWSW 22.9 29.9----29.71- 68.7-----
2024-06-13 01:40 pmWSW 21.0 26.0----29.71- 67.3-----
2024-06-13 01:31 pmWSW 24.1-----29.71- 66.4-----
2024-06-13 01:30 pmWSW 24.1 28.9----29.71- 66.4-----
2024-06-13 01:20 pmWSW 25.1 31.1----29.68- 67.8-----
2024-06-13 01:10 pmWSW 26.0 29.9----29.71- 67.8-----
2024-06-13 01:03 pmWSW 26.0 28.0----29.71- 68.9-----
2024-06-13 01:00 pmWSW 26.0 29.9----29.71+0.02 68.9-----
2024-06-13 12:50 pmWSW 27.0 34.0----29.72- 69.3-----
2024-06-13 12:40 pmWSW 27.0 32.1----29.72- 68.9-----
2024-06-13 12:30 pmWSW 27.0-----29.72- 68.2-----
2024-06-13 12:20 pmWSW 29.9 34.0----29.74- 68.7-----
2024-06-13 12:10 pmWSW 31.1 36.9----29.72- 70.3-----
2024-06-13 12:02 pmWSW 29.9 35.9----29.73- 70.0-----
2024-06-13 12:00 pmWSW 25.1 32.1----29.73+0.01 70.0-----
2024-06-13 11:50 amWSW 26.0 29.9----29.73- 67.6-----
2024-06-13 11:40 am W 18.1 20.0----29.74- 68.0-----
2024-06-13 11:30 am W 14.0 15.0----29.73- 68.5-----
2024-06-13 11:20 amWSW 6.0 7.0----29.72- 68.5-----
2024-06-13 11:10 amWSW 6.0 8.9----29.72- 69.4-----
2024-06-13 11:00 amWSW 7.0 9.9----29.73+0.00 67.6-----
2024-06-13 10:50 amWSW 4.1 6.0----29.72- 67.6-----
2024-06-13 10:40 am N 1.0 6.0----29.72- 68.9-----
2024-06-13 10:30 am SW 2.9 8.0----29.71- 68.4-----
2024-06-13 10:29 am SW 4.1 20.0----29.68- 68.0-----
2024-06-13 10:20 amSSW 2.9 8.0----29.72- 68.4-----
2024-06-13 10:10 amWSW 5.1 11.1----29.72- 68.2-----
2024-06-13 10:00 amWSW 9.9 14.0----29.69-0.04 68.4-----
2024-06-13 09:50 amWSW 11.1 19.0----29.67- 70.0-----
2024-06-13 09:40 amWSW 15.9 20.0----29.72- 70.9-----
2024-06-13 09:30 am SW 11.1 15.9----29.73- 73.2-----
2024-06-13 09:29 am SW 4.1 14.0----29.71- 72.9-----
2024-06-13 09:20 am SW 7.0 14.0----29.71- 72.1-----
2024-06-13 09:10 amWSW 9.9 12.0----29.72- 73.0-----
2024-06-13 09:00 amWSW 6.0 8.9----29.72-0.01 75.4-----
2024-06-13 08:50 am SW 6.0 9.9----29.70- 74.5-----
2024-06-13 08:40 am SW 5.1 8.0----29.72- 73.8-----
2024-06-13 08:30 am SW 8.0 11.1----29.72- 72.5-----
2024-06-13 08:28 am SW 7.0 15.9----29.72- 72.9-----
2024-06-13 08:20 amSSW 4.1 12.0----29.72- 71.2-----
2024-06-13 08:10 am SW 8.0 15.0----29.73- 69.4-----
2024-06-13 08:00 am SW 8.9 15.9----29.73+0.01 68.7-----
2024-06-13 07:50 am SW 8.0 15.0----29.73- 68.5-----
2024-06-13 07:40 am SW 9.9 13.0----29.73- 68.0-----
2024-06-13 07:30 am SW 11.1 15.0----29.73- 67.6-----
2024-06-13 07:28 am SW 8.9 19.0----29.73- 66.9-----
2024-06-13 07:20 am SW 11.1 14.0----29.74- 66.2-----
2024-06-13 07:10 am SW 9.9 15.0----29.73- 66.0-----
2024-06-13 07:00 am SW 13.0 18.1----29.73-0.01 66.4-----
2024-06-13 06:50 amWSW 14.0 19.0----29.73- 66.2-----
2024-06-13 06:40 am SW 11.1 13.0----29.75- 65.3-----
2024-06-13 06:30 am SW 11.1 15.9----29.72- 64.4-----
2024-06-13 06:28 am SW 11.1 17.1----29.72- 63.3-----
2024-06-13 06:20 amWSW 11.1 15.0----29.73- 63.0-----
2024-06-13 06:10 amWSW 9.9 13.0----29.74- 62.8-----
2024-06-13 06:00 amWSW 11.1 15.0----29.73-0.02 63.5-----
2024-06-13 05:50 amWSW 12.0 17.1----29.80- 64.8-----
2024-06-13 05:40 am SW 11.1 14.0----29.73- 64.8-----
2024-06-13 05:30 am SW 8.0 11.1----29.73- 64.6-----
2024-06-13 05:27 am SW 8.0 15.9----29.73- 64.0-----
2024-06-13 05:20 am SW 6.0 8.9----29.73- 63.7-----
2024-06-13 05:10 amSSW 5.1 9.9----29.72- 64.2-----
2024-06-13 05:00 amSSW 7.0 12.0----29.72-0.02 63.9-----
2024-06-13 04:50 am SW 6.0 13.0----29.72- 63.3-----
2024-06-13 04:40 amSSW 7.0 15.9----29.72- 63.3-----
2024-06-13 04:30 am SW 8.9 12.0----29.68- 62.6-----
2024-06-13 04:27 am SW 7.0 15.0----29.73- 62.1-----
2024-06-13 04:20 am S 6.0 8.0----29.72- 62.2-----
2024-06-13 04:10 amSSW 6.0 11.1----29.73- 62.2-----
2024-06-13 04:00 amSSW 5.1 15.0----29.74-0.01 62.2-----
2024-06-13 03:50 am SW 7.0 11.1----29.74- 62.1-----
2024-06-13 03:40 am SW 8.0 14.0----29.74- 62.2-----
2024-06-13 03:30 am SW 8.0 15.9----29.73- 62.2-----
2024-06-13 03:26 am SW 8.9 17.1----29.73- 62.4-----
2024-06-13 03:20 amWSW 14.0 17.1----29.74- 62.6-----
2024-06-13 03:10 amWSW 13.0 15.9----29.74- 61.7-----
2024-06-13 03:00 amWSW 11.1 19.0----29.75-0.01 61.5-----
2024-06-13 02:50 amWSW 18.1 24.1----29.76- 62.1-----